ハートレー第3彗星

110P/Hartley 3 (2001)

English version
Home page
Total 6,336 html files since Dec. 4, 1995
Updated on December 30, 2007

---------------------------------------------------------------------

・ プロフィール

・ 軌道要素

Epoch 2001 Apr. 1.0 TT = JDT 2452000.5  
T 2001 Mar. 21.41077 TT                                 Muraoka 
q   2.4783161            (2000.0)            P               Q
n   0.14333021     Peri.  167.93979     -0.10331390     -0.97575451
a   3.6161316      Node   287.75258     +0.89490758     -0.00651981
e   0.3146499      Incl.   11.68883     +0.43412747     -0.21877072
P   6.88
From 199 observations 1988-2000, mean residual 0".70.  Nongravitational
   parameters A1 = -2.64 +/- 0.28, A2 = -0.1052 +/- 0.0031.

・ 星図

・ 光度変化

        m1 =  11.0 + 5 logΔ +  13.0 log r          [    ,-200]  (              〜2000年 9月 2日)
        m1 = -34   + 5 logΔ + 120   log r(t + 50)  [-200, -50]  (2000年 9月 2日〜2001年 1月30日)
        m1 =  -0.5 + 5 logΔ +  35   log r(t + 50)  [ -50,    ]  (2001年 1月30日〜              )

---------------------------------------------------------------------

軌道要素は村岡健治氏の計算によるものです。
星図は StellaNavigator Ver.2.0 for Windows (アストロアーツ 編著 / アスキー出版局刊) で作成したものです。
光度グラフはComet for Windowsで作成したものです。

---------------------------------------------------------------------

Copyright(C) 1995-2008 Seiichi Yoshida (comet@aerith.net). All rights reserved.